RH
99 99 96 93 90 88 88 86 83 81 85 88 89 90 90 90 95 99 100 98 95 92 88 83 79 80 81 84 87 89 91 87 91 95 94 94 92 93 97 96 94 92 89 87 84 79 75 74 71 69 70 76
100 98 96 93 91 89 87 84 81 81 85 89 90 91 91 94 98 100 100 97 94 88 83 80 75 71 71 82 90 89 89 86 89 95 96 97 95 96 97 95 93 93 90 88 85 79 75 70 67 66 67 72
100 97 94 93 91 89 85 82 79 80 86 92 94 92 93 98 100 100 100 96 91 84 80 78 72 65 60 74 91 90 88 85 88 95 97 98 98 95 94 93 92 91 88 85 80 76 74 69 67 65 62 65
100 98 93 91 90 88 84 83 80 81 88 95 98 96 97 99 100 100 99 94 87 83 80 75 69 64 56 64 85 89 85 87 88 94 97 99 100 93 90 92 88 84 79 72 66 65 70 69 68 65 63 66
100 99 95 91 89 87 85 84 81 82 89 97 98 98 99 99 100 100 97 91 85 83 80 72 66 63 57 56 74 84 83 88 91 94 98 100 99 91 89 89 81 75 69 61 59 65 70 70 68 68 70 71
99 100 98 94 91 88 85 84 83 84 90 95 96 97 99 100 100 99 95 89 85 85 78 69 63 60 56 52 64 80 82 87 94 97 99 101 98 91 88 85 76 70 64 61 66 73 74 71 70 71 74 74
100 100 99 97 95 91 87 85 84 87 91 93 96 96 96 100 100 97 95 90 87 84 76 69 62 56 53 50 58 75 80 83 93 100 100 99 98 90 86 81 74 69 64 65 71 76 77 74 73 75 77 78
99 99 99 99 98 96 92 88 88 91 93 94 97 96 96 100 100 99 97 93 88 82 77 70 61 55 53 55 61 68 72 77 85 96 100 99 96 88 82 78 73 69 66 68 70 75 78 76 76 76 78 83
97 98 98 98 98 99 96 93 94 96 96 96 98 97 98 100 98 99 97 92 87 83 79 70 61 58 56 62 70 69 66 71 73 83 97 99 91 85 81 78 75 71 68 67 69 74 77 77 78 73 75 84
98 98 99 99 97 97 98 97 98 99 98 96 98 98 99 100 98 97 94 91 88 84 77 67 63 63 60 65 78 79 72 73 72 78 95 95 84 79 79 78 75 69 66 65 67 71 75 78 81 78 80 87
100 99 99 100 97 95 98 99 98 98 98 97 97 97 97 98 98 96 92 91 87 81 73 66 65 65 64 71 83 85 81 81 80 84 95 89 76 74 72 71 68 63 60 62 63 65 73 80 83 85 88 89
96 99 99 99 99 98 99 100 99 98 99 99 98 97 98 97 96 94 91 87 80 75 72 69 67 66 67 73 83 89 88 87 86 90 93 81 72 70 66 63 61 59 57 59 60 61 71 80 84 88 90 89
91 96 99 100 100 99 100 100 100 100 99 99 99 99 99 98 94 89 86 81 77 75 73 71 69 68 68 72 84 88 86 86 86 89 86 76 72 69 63 60 59 59 58 58 58 60 68 77 82 87 90 90
95 95 99 100 99 98 99 99 98 99 100 99 99 99 99 98 92 85 82 80 79 77 75 73 71 70 67 68 75 74 73 78 81 83 78 72 70 67 63 59 58 58 58 57 56 58 64 72 78 85 91 92
99 99 99 100 98 96 96 97 96 97 100 100 99 99 99 98 91 85 83 81 80 78 75 72 70 67 61 57 58 57 64 71 73 75 73 69 68 64 61 57 54 55 55 53 52 55 60 65 71 80 90 96
100 100 100 100 99 97 95 94 94 96 97 98 99 99 98 96 91 87 85 81 79 77 73 69 65 62 56 52 52 54 61 65 65 68 67 67 64 57 56 53 51 53 53 51 50 52 57 60 64 70 80 90
100 100 100 100 100 100 98 95 93 94 94 94 94 96 97 96 93 89 86 82 79 75 71 69 65 61 56 52 52 54 58 59 61 63 60 61 56 50 51 49 48 51 51 50 49 49 52 55 59 62 68 74
100 100 100 100 100 100 100 98 96 95 94 92 91 91 92 94 94 90 86 81 77 74 72 70 64 58 54 52 50 51 55 56 58 57 53 52 49 45 45 43 44 47 48 47 46 46 47 49 52 55 58 61
100 100 100 100 100 100 100 99 98 96 94 92 91 89 87 87 87 86 83 80 77 73 69 64 56 53 52 50 48 48 51 52 52 52 48 46 44 42 42 43 44 44 45 44 43 43 43 44 47 48 51 53
100 100 100 100 100 100 99 97 96 95 93 91 91 90 87 86 84 82 81 80 75 66 58 52 47 48 49 47 47 48 49 49 49 49 45 43 43 43 44 46 46 44 43 41 42 42 41 42 43 44 47 48
100 100 100 100 99 99 98 96 95 95 95 93 92 90 88 88 86 82 79 75 70 64 59 54 50 48 46 45 47 48 48 48 49 47 44 43 44 44 46 47 46 44 43 41 42 41 41 42 42 44 46 45
100 100 100 99 98 97 95 95 95 95 96 94 93 91 89 87 84 81 80 75 70 68 67 64 60 55 52 51 50 48 47 46 48 47 43 44 46 46 47 48 47 46 45 43 41 41 42 42 43 46 46 45
100 100 100 99 98 97 95 94 95 95 96 94 93 92 90 89 85 82 83 81 76 73 72 69 66 63 62 60 53 47 44 44 46 46 45 45 47 50 50 48 47 46 43 41 40 40 41 42 43 46 47 46
100 100 100 99 99 98 98 97 96 96 95 94 93 92 90 89 86 84 81 81 80 77 74 72 70 67 65 61 53 46 43 42 43 43 45 47 48 50 50 48 46 43 40 38 38 38 37 38 40 42 45 46
100 100 100 99 100 99 99 99 98 97 96 94 93 91 90 89 88 87 83 80 80 80 77 75 72 69 65 60 54 49 45 44 43 41 42 46 48 49 48 48 45 40 38 37 39 41 39 37 37 40 44 46
99 100 100 100 100 99 99 98 98 98 97 96 94 93 92 91 89 88 86 83 81 80 79 78 75 71 68 64 58 53 51 50 48 46 45 47 50 49 48 46 45 41 38 39 43 43 44 45 42 40 42 45
100 100 99 100 100 99 99 98 98 97 96 96 95 94 92 91 90 87 86 84 82 80 78 79 79 76 72 70 65 60 59 57 53 51 51 51 50 50 49 48 49 47 43 43 44 48 55 56 53 50 45 45
100 100 99 100 99 100 99 98 98 97 96 95 94 94 93 91 89 87 86 84 83 81 79 79 78 76 74 71 68 64 63 62 59 56 56 55 52 49 51 57 61 59 52 47 47 59 68 63 65 68 56 48
100 100 100 100 99 100 99 99 99 98 97 97 96 95 95 94 92 90 88 85 84 82 81 80 78 77 74 71 70 67 65 64 62 61 60 60 57 53 53 61 71 72 64 54 54 66 72 70 77 76 59 53
100 100 100 100 99 99 99 99 99 99 99 99 98 98 98 98 96 94 92 89 88 86 85 84 83 82 78 75 74 73 69 66 65 65 65 63 60 56 56 62 74 81 77 70 71 76 77 79 80 69 59 66
99 99 99 100 100 99 99 99 99 99 99 99 99 99 98 98 97 96 95 93 91 89 87 86 85 84 82 79 76 75 73 70 69 69 69 67 63 63 67 73 79 86 86 84 86 88 85 85 77 61 59 70
Wind_Speed
26 27 28 27 27 26 25 24 23 23 24 24 25 26 25 23 22 22 22 22 22 19 16 12 10 9 10 9 10 10 9 12 11 10 12 11 11 11 14 17 15 14 15 16 17 18 18 16 15 15 15 17
27 27 28 28 28 26 25 25 24 24 25 26 27 28 26 24 24 24 25 23 21 18 14 12 11 10 11 11 11 11 10 13 11 10 13 13 12 13 16 17 15 15 15 16 16 16 15 14 14 14 16 18
27 27 28 28 28 27 25 24 24 24 26 27 28 29 27 26 26 26 26 24 20 18 14 13 12 9 11 13 13 11 11 14 11 11 14 14 14 14 17 17 15 15 15 15 14 13 14 14 13 13 13 15
27 28 29 29 29 27 26 26 25 26 27 27 28 29 28 27 28 28 27 24 21 18 16 15 12 9 11 13 14 11 11 14 12 12 14 15 15 15 18 17 15 15 14 14 14 14 15 15 14 12 12 15
27 29 30 30 30 29 28 27 27 27 28 28 29 30 29 29 30 31 28 25 22 19 17 15 13 11 12 14 16 13 12 14 13 13 13 14 15 16 18 17 15 15 15 15 17 17 16 16 14 12 15 19
25 27 31 31 31 31 30 29 28 28 29 29 30 31 30 31 33 32 30 26 24 21 18 16 14 13 14 16 18 17 15 15 14 13 14 15 14 15 18 17 16 16 16 18 18 16 16 15 13 13 16 19
22 23 28 31 32 32 31 30 30 29 29 30 31 32 32 32 33 32 31 28 25 21 18 16 15 16 17 18 20 20 18 18 17 15 15 13 12 16 19 18 16 17 18 19 17 16 16 14 12 15 17 17
21 22 25 31 32 30 31 31 30 30 30 31 31 32 34 34 34 32 31 29 25 23 21 19 18 18 20 20 21 22 21 21 21 19 15 11 13 18 19 18 18 18 18 17 16 17 16 13 11 15 16 17
24 24 26 31 31 27 29 31 30 30 30 31 31 32 35 36 35 33 32 29 27 25 23 22 20 21 22 22 23 22 22 22 22 21 16 13 16 17 16 18 18 17 15 14 15 17 18 14 12 14 15 18
23 24 25 28 30 28 28 30 30 30 31 31 32 33 35 36 36 35 34 32 30 28 25 23 22 22 23 23 24 23 22 22 21 20 19 18 18 16 15 17 18 16 13 13 15 17 18 17 14 15 17 20
18 22 23 23 28 30 28 28 31 31 32 34 34 35 36 37 37 37 37 35 31 28 25 24 24 24 24 24 24 24 23 22 20 20 22 22 19 17 17 17 17 16 14 16 16 17 18 17 18 18 19 20
16 17 18 18 22 29 29 27 31 31 30 32 34 37 38 38 38 37 37 36 32 29 28 27 26 26 25 24 24 23 22 21 21 23 25 24 20 18 19 18 17 17 16 17 17 18 18 18 19 19 18 19
16 16 16 16 14 20 23 24 26 29 31 31 33 36 37 38 37 35 34 34 33 32 31 29 28 27 25 24 23 23 22 22 23 27 27 24 21 20 20 18 17 17 17 17 17 17 18 18 18 19 18 18
14 14 15 15 13 14 16 18 18 21 28 30 33 37 37 38 36 35 35 34 33 33 31 30 28 26 25 24 24 22 22 23 25 27 27 24 22 21 20 19 17 17 18 17 17 18 19 19 18 18 18 19
12 13 14 14 14 14 15 17 15 12 18 22 26 30 33 36 36 36 36 35 34 33 31 30 28 26 25 24 23 22 23 24 24 25 24 22 21 21 20 20 19 19 19 19 18 18 19 20 20 18 18 19
11 11 12 12 13 15 15 17 17 12 12 15 18 21 23 26 29 33 35 35 34 32 30 30 28 26 25 24 22 22 24 23 22 23 21 21 21 20 20 20 18 19 20 20 18 18 19 20 21 20 19 19
7 8 8 9 11 13 15 18 20 17 13 14 16 17 19 19 20 25 31 33 32 31 30 30 27 25 23 22 21 21 24 23 22 23 21 21 21 19 20 19 18 19 20 19 18 18 19 19 20 20 20 19
6 6 7 7 8 9 11 13 17 18 16 15 17 18 19 18 15 17 23 28 30 30 30 29 26 23 21 21 20 20 22 23 23 24 22 22 21 20 20 20 19 20 20 19 18 18 18 19 19 19 19 18
5 6 6 6 7 8 8 9 10 12 12 11 15 19 20 18 15 15 16 19 23 23 23 24 22 21 21 21 20 19 21 22 23 24 22 22 22 22 21 21 21 21 20 19 18 18 18 18 18 18 18 17
5 5 5 5 6 6 7 8 9 9 10 10 11 16 20 20 18 18 16 16 19 20 19 20 20 20 20 20 20 19 19 21 22 23 22 21 22 23 22 21 21 21 21 21 19 18 18 18 18 18 17 15
5 4 4 5 5 5 6 7 8 9 10 11 11 13 16 19 19 19 17 16 18 20 21 22 23 24 23 22 22 20 18 18 20 21 21 20 21 23 23 22 23 23 22 22 21 20 18 18 17 17 16 15
6 5 4 4 4 4 5 6 6 8 10 11 12 13 15 17 19 19 19 19 21 22 22 23 23 25 26 25 25 23 20 18 19 18 19 20 20 20 22 24 24 23 23 23 22 20 19 18 17 17 16 15
6 6 4 3 3 3 3 5 5 7 9 10 11 12 13 14 16 19 19 19 21 24 24 23 24 24 25 27 29 28 24 22 20 17 17 20 20 19 21 23 24 24 24 24 22 21 20 18 17 16 16 16
5 6 5 4 3 3 3 3 5 5 7 9 10 11 12 12 13 16 18 17 17 21 22 23 24 24 24 26 29 30 28 25 24 21 20 21 21 21 21 21 22 23 24 25 24 22 22 19 17 16 16 17
4 4 5 6 6 5 4 4 4 5 6 7 9 10 11 12 12 12 16 19 19 19 20 21 22 24 23 24 26 28 28 28 27 25 24 23 23 23 24 23 21 22 24 24 22 20 20 20 18 16 16 16
3 3 4 5 6 7 6 5 5 5 6 6 7 9 10 11 12 11 12 16 18 18 18 20 22 24 25 25 26 27 28 29 28 27 26 27 26 24 26 24 22 22 20 16 16 17 15 15 15 15 15 15
3 3 4 5 5 6 7 6 6 6 6 6 7 8 9 10 11 12 13 14 16 17 18 18 18 21 23 23 24 26 27 28 29 28 26 28 28 28 27 24 21 18 14 14 17 16 9 5 6 8 10 13
4 4 4 4 4 4 5 5 6 7 6 7 7 7 9 10 11 12 13 14 15 16 17 17 15 16 19 19 20 22 24 26 28 29 27 27 28 29 28 25 19 13 14 19 18 10 4 4 4 2 5 10
5 5 4 3 3 3 4 4 5 5 5 6 6 7 7 9 11 12 14 15 16 17 17 18 18 19 20 21 21 21 23 25 26 28 27 26 27 28 28 27 22 15 16 20 17 9 6 5 2 2 8 11
5 4 3 3 3 3 4 5 4 3 3 4 5 6 7 8 10 11 13 14 16 17 18 19 20 21 22 22 22 21 22 23 24 25 25 25 26 26 25 26 25 21 18 19 15 10 8 4 2 7 13 9
4 3 2 3 4 4 5 6 5 3 4 4 5 5 6 8 9 10 12 13 14 15 17 18 19 20 21 22 22 22 23 24 25 25 25 25 25 25 24 24 26 24 20 18 12 8 7 4 6 14 15 8
Wind_Direction
213 208 208 209 208 208 209 210 215 216 210 207 203 200 199 198 197 190 183 179 177 176 173 179 193 203 198 187 172 161 160 157 161 176 167 163 164 162 160 158 159 153 149 149 149 145 138 136 134 133 130 125
213 209 209 210 209 208 210 213 217 217 213 208 203 200 199 198 194 187 183 182 180 176 175 187 202 214 198 176 164 165 163 154 164 184 170 165 167 166 167 164 162 156 150 150 149 146 143 142 135 124 124 122
213 212 211 211 211 211 213 215 218 217 215 210 203 201 200 199 194 187 184 185 184 178 182 195 204 209 191 170 160 166 162 154 171 187 173 169 169 172 173 168 165 161 155 153 152 149 145 141 130 113 115 119
214 214 214 213 213 214 215 215 218 218 216 212 205 202 201 199 194 189 186 186 185 184 191 196 198 196 188 171 159 167 163 159 176 185 177 171 171 180 178 172 171 165 159 154 146 142 136 128 123 119 123 126
214 215 214 215 215 214 214 214 218 220 217 213 207 204 202 196 191 187 185 186 186 189 192 191 191 191 192 176 162 169 168 165 178 180 174 166 170 183 180 176 173 164 155 146 139 135 129 126 129 135 132 127
216 214 215 215 215 213 211 214 218 219 217 215 208 204 201 191 186 184 184 187 188 190 191 189 188 187 190 181 168 170 172 173 175 170 170 168 175 183 180 179 173 161 151 144 140 135 135 137 136 136 135 130
224 213 218 217 215 214 211 215 219 218 217 216 210 206 201 189 183 183 184 187 189 191 192 188 186 182 182 181 175 174 176 180 176 172 174 174 178 178 177 178 172 160 152 148 144 138 141 143 132 129 133 134
245 220 223 220 214 213 213 217 218 217 216 215 210 204 197 188 183 183 184 185 187 190 190 186 182 177 175 178 180 180 183 186 186 184 179 176 176 175 174 174 170 160 155 153 148 143 139 137 134 130 132 133
257 232 229 224 214 211 214 217 216 215 215 214 208 196 189 186 186 186 185 185 187 189 188 184 179 175 175 177 180 184 187 190 193 191 184 178 172 168 168 168 164 157 157 155 149 144 132 124 134 135 135 134
266 242 234 228 217 213 216 218 215 214 214 213 204 191 186 187 188 189 187 186 185 185 185 183 180 178 178 180 181 185 190 190 191 189 181 175 168 164 166 164 161 156 156 152 143 141 132 122 126 132 133 130
270 247 237 230 220 217 220 218 215 214 214 211 203 195 192 191 191 189 187 186 184 184 185 186 182 180 181 183 183 187 192 189 184 179 173 171 171 169 166 162 162 157 152 149 141 140 138 126 123 129 131 128
278 259 242 234 225 221 221 215 212 213 211 206 200 198 197 196 195 190 186 185 186 189 190 188 184 183 185 185 185 187 192 188 178 173 171 172 174 172 166 161 162 158 151 149 143 139 140 132 129 133 134 132
287 275 253 240 233 225 220 214 211 213 212 206 201 199 198 199 197 192 189 187 187 189 187 185 184 185 186 186 187 188 190 185 176 172 172 174 175 171 167 161 158 158 153 149 144 139 137 136 137 141 143 139
286 275 259 249 244 237 227 217 215 211 205 203 203 201 201 201 199 196 194 190 187 186 184 182 184 187 185 184 186 189 187 180 176 174 172 173 174 171 168 160 154 154 148 142 139 136 133 129 131 141 147 145
278 267 256 250 245 239 228 216 217 214 195 191 196 200 202 202 200 198 196 192 188 186 183 183 185 187 184 182 186 189 182 177 179 176 173 173 172 169 166 157 152 153 148 140 137 137 134 130 127 131 140 142
271 264 252 245 238 230 222 212 214 225 214 198 198 199 202 203 201 199 197 194 190 187 185 185 186 187 185 183 184 185 179 177 179 175 172 172 167 164 162 155 152 154 150 142 138 137 135 134 131 129 134 136
263 260 252 242 235 225 218 212 211 219 224 220 220 209 199 201 206 203 198 194 190 189 187 185 186 186 184 183 181 181 179 176 175 171 167 167 163 159 158 152 148 149 144 138 135 135 135 135 134 133 133 132
265 258 255 246 240 231 223 218 213 214 215 211 215 215 206 202 203 200 196 193 189 187 187 184 183 181 178 178 179 181 182 176 173 169 164 164 162 156 153 148 146 146 139 135 134 133 135 134 133 135 134 132
281 268 260 253 246 241 237 233 226 222 222 207 192 195 201 204 207 200 194 194 187 181 182 179 176 175 175 178 178 176 177 174 171 169 162 161 159 153 150 146 144 144 138 134 132 130 131 131 130 131 131 133
292 279 269 263 253 247 240 235 232 226 225 220 197 186 187 190 196 199 197 193 179 171 173 173 170 170 171 175 175 169 171 172 170 167 160 159 159 153 148 145 140 140 136 131 126 125 127 126 128 127 125 127
293 287 274 267 259 248 238 229 223 217 213 212 205 197 192 187 185 186 191 188 175 168 173 178 176 173 171 170 169 166 165 168 167 165 161 158 158 155 149 143 137 133 131 128 124 122 122 123 123 121 120 123
289 290 284 274 265 250 237 224 212 209 209 205 198 194 194 196 192 186 183 185 182 178 179 183 182 178 177 174 170 166 162 161 162 162 161 155 152 152 147 140 135 132 129 124 120 116 114 117 117 115 117 120
277 277 278 269 255 244 230 219 205 199 199 199 198 195 193 196 198 192 184 181 183 182 183 184 182 179 178 179 176 170 164 160 158 154 153 152 148 144 142 141 138 135 131 124 117 111 107 106 106 106 110 110
254 251 248 241 230 218 206 196 193 194 192 193 195 197 199 200 201 199 195 194 190 185 187 186 182 177 174 177 178 173 168 165 162 158 154 152 150 144 138 139 139 136 132 121 108 103 101 100 99 100 103 102
231 224 226 226 221 213 202 184 175 176 177 184 191 192 196 199 201 203 201 202 199 190 189 189 185 181 176 177 179 175 170 167 165 165 165 160 156 153 144 137 138 142 138 124 109 100 95 93 94 98 101 99
223 215 219 223 218 214 210 203 192 177 164 162 173 182 188 192 195 202 204 205 205 197 190 188 187 184 179 179 179 175 170 169 166 166 169 166 158 154 149 141 140 147 145 133 126 120 102 88 88 92 94 92
247 242 244 236 220 210 205 203 199 190 174 160 156 163 171 177 183 190 194 196 202 204 200 195 190 182 176 174 174 172 169 168 168 166 168 169 162 153 147 143 144 153 153 140 132 125 114 106 97 88 87 86
280 273 265 251 230 205 189 181 181 177 169 165 159 154 157 164 169 175 181 183 186 192 196 199 200 192 183 179 178 176 173 170 170 171 171 171 169 160 151 144 144 152 154 147 140 124 106 136 137 127 114 95
294 285 277 246 207 176 157 141 145 150 151 159 159 155 151 153 160 167 173 177 180 182 184 188 194 197 191 186 184 184 182 176 173 174 175 175 173 168 162 155 149 149 155 159 161 153 134 139 150 180 145 125
305 291 273 220 182 161 143 127 120 123 139 149 150 154 155 151 155 161 166 171 175 178 179 177 178 182 183 181 179 178 180 178 175 175 176 178 177 175 173 168 161 157 162 169 174 168 156 159 170 150 149 143
308 289 248 205 187 177 169 156 149 161 171 166 158 155 154 154 153 155 160 166 169 172 175 176 174 173 174 175 174 175 176 176 176 177 176 178 180 181 182 180 172 166 166 170 172 171 159 138 144 151 154 156